Flag for U.S.A. Weather past 2 weeks in Chula Vista, California, U.S.A.

59 °F

Partly sunny.

Feels Like: 58 °F
Forecast: 50 / 60 °F
Wind: 7 mph from Northwest

Location: Brown Field Municipal Airport

Current Time: Nov 25, 2015 at 5:05:31 PM

Latest Report: Nov 25, 2015 at 3:53 PM

Visibility: 10 mi

Pressure: 29.90 "Hg

Humidity: 60%

Dew point: 45 °F

Location of Chula VistaLocation

Historic Weather in Chula Vista — Graph


Chula Vista temperature yesterday

Maximum temperature yesterday: 71 °F (at 10:53 AM)
Minimum temperature yesterday: 49 °F (at 5:53 AM)
Average temperature yesterday: 59 °F

Past Weeks' High & Low Weather Summary

High93 °F (Nov 14, 10:53 AM)93% (Nov 25, 4:53 AM)30.26 "Hg (Nov 25, 4:53 AM)
Low42 °F (Nov 17, 3:53 AM)6% (Nov 14, 10:53 AM)29.86 "Hg (Nov 22, 2:53 PM)
Average63 °F41%29.98 "Hg
* Reported Nov 10 2:53 PM — Nov 25 2:53 PM, Chula Vista, Weather by CustomWeather, © 2015

Note: Actual official high and low records may vary slightly from our data, if they occured in-between our weather recording intervals... More about our weather records


Chula Vista weather history for previous 24 hours

Time TempWeatherWind HumidityBarometerVisibility
2:53 PM
Wed, Nov 25
59 °FScattered clouds.14 mph60%29.90 "Hg10 mi
1:53 PM60 °FPassing clouds.9 mph56%29.90 "Hg10 mi
12:53 PM62 °FPassing clouds.7 mph50%29.90 "Hg10 mi
11:53 AM61 °FPassing clouds.14 mph54%29.92 "Hg10 mi
10:53 AM60 °FPartly sunny.6 mph53%29.95 "Hg10 mi
9:53 AM61 °FScattered clouds.7 mph52%29.96 "Hg10 mi
9:05 AM59 °FScattered clouds.17 mph55%29.95 "Hg10 mi
8:53 AM59 °FBroken clouds.13 mph60%29.94 "Hg10 mi
7:53 AM57 °FOvercast.8 mph67%29.93 "Hg10 mi
6:53 AM55 °FMostly cloudy.10 mph77%29.91 "Hg10 mi
5:53 AM55 °FLight rain. Fog.6 mph93%29.89 "Hg5 mi
4:53 AM56 °FLight rain. Fog.7 mph93%29.87 "Hg5 mi
4:03 AM57 °FMostly cloudy.6 mph72%29.87 "Hg10 mi
3:53 AM57 °FOvercast.6 mph72%29.86 "Hg10 mi
2:53 AM56 °FPassing clouds.6 mph75%29.87 "Hg10 mi
1:53 AM55 °FOvercast.3 mph77%29.89 "Hg10 mi
12:53 AM55 °FPassing clouds.5 mph77%29.90 "Hg10 mi
11:53 PM
Tue, Nov 24
57 °FOvercast.5 mph78%29.90 "Hg10 mi
10:53 PM57 °FPassing clouds.5 mph78%29.92 "Hg10 mi
9:53 PM59 °FMostly cloudy.7 mph78%29.92 "Hg10 mi
8:53 PM59 °FMostly cloudy.5 mph78%29.92 "Hg10 mi
7:53 PM59 °FOvercast.5 mph78%29.91 "Hg10 mi
7:03 PM58 °FPassing clouds.5 mph81%29.91 "Hg10 mi
6:53 PM57 °FPassing clouds.5 mph83%29.91 "Hg10 mi
5:53 PM58 °FPassing clouds.3 mph81%29.92 "Hg10 mi
Weather by CustomWeather, © 2015

See weather overviewHow to use our weather pages